Volver al catálogo

STARLINK-35641

ActivoComunicacionesVLEO
NORAD 66167·PAYLOAD·🇺🇸 United States

Lanzado Oct 25, 2025 desde Cape Canaveral Space Force Station

Loading…

Próximos Pases (próximas 24 horas)

TLE

ActualizadoSource: CelesTrak SupGP

Época: Sep 14, 2026, 15:10 UTC

1 66167C 25240X   26257.63243056 -.00028777  00000+0 -85045-3 0  2574
2 66167  53.1567 261.1931 0001151  89.1919 235.8412 15.34396778    12

Sigue STARLINK-35641 en tiempo real con AllMySat

Download on the App Store